Saint Bonnet de Bellac- Haute Vienne - France
Donnes mto: mardi, 01/11/2011
Date Horaire Temp. E. Hum. E. P.atmo. Pluie Vent Direction Direction Ensoleilleme Solaire P. de rose Temp au vent Rafales
01/11/2011 00:00 13,9 C 83 % 1012,2 hPa 0,0 mm 9,4 km/h (2 Bft) SO 225 0 min 0 W/m 11,1 C 13,9 C 13,0 km/h (3 Bft)
01/11/2011 00:05 13,9 C 83 % 1012,2 hPa 0,0 mm 8,3 km/h (2 Bft) S 180 0 min 0 W/m 11,1 C 13,9 C 11,2 km/h (2 Bft)
01/11/2011 00:10 13,8 C 83 % 1012,2 hPa 0,0 mm 6,5 km/h (2 Bft) SO 225 0 min 0 W/m 11,0 C 13,8 C 13,0 km/h (3 Bft)
01/11/2011 00:15 13,8 C 83 % 1012,2 hPa 0,0 mm 11,2 km/h (2 Bft) S-SE 157 0 min 0 W/m 11,0 C 13,8 C 14,4 km/h (3 Bft)
01/11/2011 00:20 13,8 C 83 % 1012,2 hPa 0,0 mm 6,1 km/h (2 Bft) SO 225 0 min 0 W/m 11,0 C 13,8 C 9,4 km/h (2 Bft)
01/11/2011 00:25 13,8 C 83 % 1012,1 hPa 0,0 mm 4,0 km/h (1 Bft) S-SE 157 0 min 0 W/m 11,0 C 13,8 C 7,9 km/h (2 Bft)
01/11/2011 00:30 13,8 C 83 % 1012,2 hPa 0,0 mm 8,6 km/h (2 Bft) S 180 0 min 0 W/m 11,0 C 13,8 C 10,8 km/h (2 Bft)
01/11/2011 00:35 13,8 C 83 % 1012,2 hPa 0,0 mm 6,5 km/h (2 Bft) S-SO 202 0 min 0 W/m 11,0 C 13,8 C 7,2 km/h (2 Bft)
01/11/2011 00:40 13,7 C 83 % 1012,2 hPa 0,0 mm 2,5 km/h (1 Bft) S-SE 157 0 min 0 W/m 10,9 C 13,7 C 6,5 km/h (2 Bft)
01/11/2011 00:45 13,6 C 83 % 1012,2 hPa 0,0 mm 5,0 km/h (1 Bft) S-SE 157 0 min 0 W/m 10,8 C 13,6 C 5,0 km/h (1 Bft)
01/11/2011 00:50 13,5 C 84 % 1012,2 hPa 0,0 mm 5,4 km/h (2 Bft) S 180 0 min 0 W/m 10,8 C 13,5 C 5,4 km/h (2 Bft)
01/11/2011 00:55 13,5 C 84 % 1012,2 hPa 0,0 mm 3,6 km/h (1 Bft) S 180 0 min 0 W/m 10,8 C 13,5 C 6,1 km/h (2 Bft)
01/11/2011 01:00 13,4 C 84 % 1012,1 hPa 0,0 mm 1,8 km/h (1 Bft) S-SO 202 0 min 0 W/m 10,8 C 13,4 C 3,2 km/h (1 Bft)
01/11/2011 01:05 13,4 C 84 % 1012,1 hPa 0,0 mm 2,9 km/h (1 Bft) S 180 0 min 0 W/m 10,8 C 13,4 C 4,3 km/h (1 Bft)
01/11/2011 01:10 13,4 C 84 % 1012,1 hPa 0,0 mm 2,9 km/h (1 Bft) S-SO 202 0 min 0 W/m 10,8 C 13,4 C 6,5 km/h (2 Bft)
01/11/2011 01:15 13,4 C 84 % 1012,1 hPa 0,0 mm 6,5 km/h (2 Bft) S 180 0 min 0 W/m 10,8 C 13,4 C 6,5 km/h (2 Bft)
01/11/2011 01:20 13,4 C 84 % 1012,1 hPa 0,0 mm 7,2 km/h (2 Bft) S 180 0 min 0 W/m 10,8 C 13,4 C 12,2 km/h (2 Bft)
01/11/2011 01:25 13,4 C 84 % 1012,1 hPa 0,0 mm 2,2 km/h (1 Bft) S 180 0 min 0 W/m 10,8 C 13,4 C 4,3 km/h (1 Bft)
01/11/2011 01:30 13,4 C 84 % 1012,0 hPa 0,0 mm 4,0 km/h (1 Bft) S 180 0 min 0 W/m 10,8 C 13,4 C 8,6 km/h (2 Bft)
01/11/2011 01:35 13,5 C 84 % 1012,0 hPa 0,0 mm 1,1 km/h (1 Bft) S-SE 157 0 min 0 W/m 10,8 C 13,5 C 3,2 km/h (1 Bft)
01/11/2011 01:40 13,5 C 83 % 1012,0 hPa 0,0 mm 4,7 km/h (1 Bft) S 180 0 min 0 W/m 10,7 C 13,5 C 9,4 km/h (2 Bft)
01/11/2011 01:45 13,5 C 83 % 1011,9 hPa 0,0 mm 1,1 km/h (1 Bft) S-SO 202 0 min 0 W/m 10,7 C 13,5 C 1,1 km/h (1 Bft)
01/11/2011 01:50 13,5 C 83 % 1011,9 hPa 0,0 mm 1,1 km/h (1 Bft) S-SE 157 0 min 0 W/m 10,7 C 13,5 C 4,3 km/h (1 Bft)
01/11/2011 01:55 13,5 C 83 % 1011,9 hPa 0,0 mm 2,9 km/h (1 Bft) S-SO 202 0 min 0 W/m 10,7 C 13,5 C 4,0 km/h (1 Bft)
01/11/2011 02:02 13,4 C 83 % 1011,8 hPa 0,0 mm 5,0 km/h (1 Bft) S 180 0 min 0 W/m 10,6 C 13,4 C 7,6 km/h (2 Bft)
01/11/2011 02:05 13,4 C 83 % 1011,7 hPa 0,0 mm 1,8 km/h (1 Bft) S-SE 157 0 min 0 W/m 10,6 C 13,4 C 3,2 km/h (1 Bft)
01/11/2011 02:10 13,4 C 83 % 1011,7 hPa 0,0 mm 5,4 km/h (2 Bft) SE 135 0 min 0 W/m 10,6 C 13,4 C 11,5 km/h (2 Bft)
01/11/2011 02:15 13,4 C 83 % 1011,6 hPa 0,0 mm 0,7 km/h (0 Bft) S 180 0 min 0 W/m 10,6 C 13,4 C 0,7 km/h (0 Bft)
01/11/2011 02:20 13,4 C 83 % 1011,6 hPa 0,0 mm 2,2 km/h (1 Bft) S-SE 157 0 min 0 W/m 10,6 C 13,4 C 4,3 km/h (1 Bft)
01/11/2011 02:25 13,4 C 83 % 1011,7 hPa 0,0 mm 3,6 km/h (1 Bft) S-SE 157 0 min 0 W/m 10,6 C 13,4 C 4,3 km/h (1 Bft)
01/11/2011 02:30 13,5 C 83 % 1011,5 hPa 0,0 mm 9,7 km/h (2 Bft) S 180 0 min 0 W/m 10,7 C 13,5 C 11,9 km/h (2 Bft)
01/11/2011 02:35 13,6 C 83 % 1011,6 hPa 0,0 mm 7,6 km/h (2 Bft) S 180 0 min 0 W/m 10,8 C 13,6 C 15,1 km/h (3 Bft)
01/11/2011 02:40 13,7 C 83 % 1011,5 hPa 0,0 mm 4,7 km/h (1 Bft) S-SO 202 0 min 0 W/m 10,9 C 13,7 C 7,9 km/h (2 Bft)
01/11/2011 02:45 13,8 C 83 % 1011,5 hPa 0,0 mm 6,1 km/h (2 Bft) S-SE 157 0 min 0 W/m 11,0 C 13,8 C 11,5 km/h (2 Bft)
01/11/2011 02:50 13,8 C 82 % 1011,5 hPa 0,0 mm 5,0 km/h (1 Bft) S-SO 202 0 min 0 W/m 10,8 C 13,8 C 11,2 km/h (2 Bft)
01/11/2011 02:55 13,8 C 82 % 1011,4 hPa 0,0 mm 5,0 km/h (1 Bft) N 360 0 min 0 W/m 10,8 C 13,8 C 5,0 km/h (1 Bft)
01/11/2011 03:00 13,8 C 82 % 1011,4 hPa 0,0 mm 7,6 km/h (2 Bft) SO 225 0 min 0 W/m 10,8 C 13,8 C 14,0 km/h (3 Bft)
01/11/2011 03:05 13,8 C 82 % 1011,3 hPa 0,0 mm 5,8 km/h (2 Bft) S-SE 157 0 min 0 W/m 10,8 C 13,8 C 5,8 km/h (2 Bft)
01/11/2011 03:10 13,8 C 82 % 1011,3 hPa 0,0 mm 7,6 km/h (2 Bft) S-SO 202 0 min 0 W/m 10,8 C 13,8 C 11,9 km/h (2 Bft)
01/11/2011 03:15 13,8 C 82 % 1011,3 hPa 0,0 mm 9,7 km/h (2 Bft) S-SO 202 0 min 0 W/m 10,8 C 13,8 C 14,0 km/h (3 Bft)
01/11/2011 03:20 13,8 C 82 % 1011,2 hPa 0,0 mm 7,6 km/h (2 Bft) S 180 0 min 0 W/m 10,8 C 13,8 C 11,2 km/h (2 Bft)
01/11/2011 03:25 13,8 C 82 % 1011,1 hPa 0,0 mm 6,5 km/h (2 Bft) S-SO 202 0 min 0 W/m 10,8 C 13,8 C 8,3 km/h (2 Bft)
01/11/2011 03:30 13,8 C 82 % 1011,1 hPa 0,0 mm 8,6 km/h (2 Bft) S-SO 202 0 min 0 W/m 10,8 C 13,8 C 12,6 km/h (3 Bft)
01/11/2011 03:35 13,8 C 82 % 1011,1 hPa 0,0 mm 7,6 km/h (2 Bft) S-SO 202 0 min 0 W/m 10,8 C 13,8 C 14,4 km/h (3 Bft)
01/11/2011 03:40 13,8 C 82 % 1011,0 hPa 0,0 mm 13,0 km/h (3 Bft) S 180 0 min 0 W/m 10,8 C 13,8 C 15,5 km/h (3 Bft)
01/11/2011 03:45 13,8 C 82 % 1011,0 hPa 0,0 mm 4,7 km/h (1 Bft) SE 135 0 min 0 W/m 10,8 C 13,8 C 10,4 km/h (2 Bft)
01/11/2011 03:50 13,8 C 82 % 1011,0 hPa 0,0 mm 4,3 km/h (1 Bft) S 180 0 min 0 W/m 10,8 C 13,8 C 9,4 km/h (2 Bft)
01/11/2011 03:55 13,8 C 82 % 1010,9 hPa 0,0 mm 3,6 km/h (1 Bft) SE 135 0 min 0 W/m 10,8 C 13,8 C 7,2 km/h (2 Bft)
01/11/2011 04:00 13,8 C 82 % 1010,9 hPa 0,0 mm 7,2 km/h (2 Bft) S-SE 157 0 min 0 W/m 10,8 C 13,8 C 11,5 km/h (2 Bft)
01/11/2011 04:05 13,8 C 82 % 1010,8 hPa 0,0 mm 7,6 km/h (2 Bft) S 180 0 min 0 W/m 10,8 C 13,8 C 13,0 km/h (3 Bft)
01/11/2011 04:10 13,8 C 82 % 1010,8 hPa 0,0 mm 7,6 km/h (2 Bft) S 180 0 min 0 W/m 10,8 C 13,8 C 14,4 km/h (3 Bft)
01/11/2011 04:15 13,8 C 82 % 1010,8 hPa 0,0 mm 2,9 km/h (1 Bft) S 180 0 min 0 W/m 10,8 C 13,8 C 4,3 km/h (1 Bft)
01/11/2011 04:20 13,8 C 82 % 1010,8 hPa 0,0 mm 5,4 km/h (2 Bft) S-SO 202 0 min 0 W/m 10,8 C 13,8 C 10,8 km/h (2 Bft)
01/11/2011 04:25 13,8 C 82 % 1010,8 hPa 0,0 mm 4,3 km/h (1 Bft) S 180 0 min 0 W/m 10,8 C 13,8 C 6,8 km/h (2 Bft)
01/11/2011 04:30 13,8 C 82 % 1010,7 hPa 0,0 mm 5,8 km/h (2 Bft) S 180 0 min 0 W/m 10,8 C 13,8 C 6,5 km/h (2 Bft)
01/11/2011 04:35 13,8 C 82 % 1010,7 hPa 0,0 mm 4,3 km/h (1 Bft) S 180 0 min 0 W/m 10,8 C 13,8 C 7,2 km/h (2 Bft)
01/11/2011 04:40 13,8 C 82 % 1010,7 hPa 0,0 mm 4,3 km/h (1 Bft) S-SO 202 0 min 0 W/m 10,8 C 13,8 C 9,0 km/h (2 Bft)
01/11/2011 04:45 13,8 C 82 % 1010,7 hPa 0,0 mm 4,3 km/h (1 Bft) S 180 0 min 0 W/m 10,8 C 13,8 C 4,3 km/h (1 Bft)
01/11/2011 04:50 13,8 C 82 % 1010,7 hPa 0,0 mm 5,0 km/h (1 Bft) S-SE 157 0 min 0 W/m 10,8 C 13,8 C 7,9 km/h (2 Bft)
01/11/2011 04:55 13,8 C 81 % 1010,6 hPa 0,0 mm 5,4 km/h (2 Bft) S-SO 202 0 min 0 W/m 10,6 C 13,8 C 9,0 km/h (2 Bft)
01/11/2011 05:00 13,8 C 82 % 1010,7 hPa 0,0 mm 3,6 km/h (1 Bft) S-SO 202 0 min 0 W/m 10,8 C 13,8 C 3,6 km/h (1 Bft)
01/11/2011 05:05 13,7 C 82 % 1010,7 hPa 0,0 mm 9,4 km/h (2 Bft) S 180 0 min 0 W/m 10,7 C 13,7 C 13,3 km/h (3 Bft)
01/11/2011 05:10 13,8 C 82 % 1010,7 hPa 0,0 mm 6,5 km/h (2 Bft) S-SE 157 0 min 0 W/m 10,8 C 13,8 C 9,4 km/h (2 Bft)
01/11/2011 05:15 13,8 C 82 % 1010,6 hPa 0,0 mm 2,5 km/h (1 Bft) S 180 0 min 0 W/m 10,8 C 13,8 C 4,3 km/h (1 Bft)
01/11/2011 05:20 13,8 C 82 % 1010,7 hPa 0,0 mm 5,0 km/h (1 Bft) S-SO 202 0 min 0 W/m 10,8 C 13,8 C 6,1 km/h (2 Bft)
01/11/2011 05:25 13,8 C 82 % 1010,6 hPa 0,0 mm 3,6 km/h (1 Bft) S 180 0 min 0 W/m 10,8 C 13,8 C 7,6 km/h (2 Bft)
01/11/2011 05:30 13,8 C 82 % 1010,6 hPa 0,0 mm 4,7 km/h (1 Bft) SE 135 0 min 0 W/m 10,8 C 13,8 C 6,1 km/h (2 Bft)
01/11/2011 05:35 13,8 C 82 % 1010,7 hPa 0,0 mm 2,5 km/h (1 Bft) S-SE 157 0 min 0 W/m 10,8 C 13,8 C 6,8 km/h (2 Bft)
01/11/2011 05:40 13,8 C 82 % 1010,7 hPa 0,0 mm 6,5 km/h (2 Bft) S-SO 202 0 min 0 W/m 10,8 C 13,8 C 7,6 km/h (2 Bft)
01/11/2011 05:45 13,8 C 82 % 1010,7 hPa 0,0 mm 6,1 km/h (2 Bft) S 180 0 min 0 W/m 10,8 C 13,8 C 6,1 km/h (2 Bft)
01/11/2011 05:50 13,8 C 82 % 1010,6 hPa 0,0 mm 5,8 km/h (2 Bft) S-SO 202 0 min 0 W/m 10,8 C 13,8 C 11,9 km/h (2 Bft)
01/11/2011 05:55 13,9 C 82 % 1010,7 hPa 0,0 mm 2,9 km/h (1 Bft) SO 225 0 min 0 W/m 10,9 C 13,9 C 4,3 km/h (1 Bft)
01/11/2011 06:00 13,9 C 82 % 1010,7 hPa 0,0 mm 4,0 km/h (1 Bft) S-SE 157 0 min 0 W/m 10,9 C 13,9 C 10,1 km/h (2 Bft)
01/11/2011 06:05 14,0 C 82 % 1010,8 hPa 0,0 mm 5,8 km/h (2 Bft) S 180 0 min 0 W/m 11,0 C 14,0 C 8,3 km/h (2 Bft)
01/11/2011 06:10 14,0 C 82 % 1011,1 hPa 0,0 mm 5,4 km/h (2 Bft) S-SO 202 0 min 0 W/m 11,0 C 14,0 C 8,6 km/h (2 Bft)
01/11/2011 06:15 14,1 C 82 % 1011,2 hPa 0,0 mm 10,1 km/h (2 Bft) S-SO 202 0 min 0 W/m 11,1 C 14,1 C 10,1 km/h (2 Bft)
01/11/2011 06:20 14,2 C 82 % 1011,4 hPa 0,0 mm 11,2 km/h (2 Bft) SO 225 0 min 0 W/m 11,2 C 14,2 C 16,9 km/h (3 Bft)
01/11/2011 06:25 14,2 C 82 % 1011,5 hPa 0,0 mm 6,5 km/h (2 Bft) S-SO 202 0 min 0 W/m 11,2 C 14,2 C 11,9 km/h (2 Bft)
01/11/2011 06:30 14,2 C 84 % 1011,5 hPa 0,0 mm 14,0 km/h (3 Bft) S-SO 202 0 min 0 W/m 11,5 C 14,2 C 22,3 km/h (4 Bft)
01/11/2011 06:35 13,9 C 85 % 1011,6 hPa 0,3 mm 9,4 km/h (2 Bft) SO 225 0 min 0 W/m 11,4 C 13,9 C 22,7 km/h (4 Bft)
01/11/2011 06:40 13,8 C 87 % 1011,6 hPa 0,0 mm 9,7 km/h (2 Bft) S-SO 202 0 min 0 W/m 11,7 C 13,8 C 11,9 km/h (2 Bft)
01/11/2011 06:45 13,6 C 88 % 1011,5 hPa 0,0 mm 5,4 km/h (2 Bft) S-SO 202 0 min 0 W/m 11,6 C 13,6 C 10,8 km/h (2 Bft)
01/11/2011 06:50 13,5 C 88 % 1011,5 hPa 0,3 mm 11,5 km/h (2 Bft) S-SO 202 0 min 0 W/m 11,6 C 13,5 C 18,0 km/h (3 Bft)
01/11/2011 06:55 13,4 C 88 % 1011,6 hPa 0,0 mm 9,0 km/h (2 Bft) S 180 0 min 0 W/m 11,5 C 13,4 C 11,2 km/h (2 Bft)
01/11/2011 07:00 13,4 C 89 % 1011,7 hPa 0,0 mm 6,8 km/h (2 Bft) SO 225 0 min 0 W/m 11,6 C 13,4 C 9,4 km/h (2 Bft)
01/11/2011 07:05 13,4 C 89 % 1011,7 hPa 0,0 mm 9,7 km/h (2 Bft) S-SE 157 0 min 0 W/m 11,6 C 13,4 C 14,0 km/h (3 Bft)
01/11/2011 07:10 13,3 C 90 % 1011,8 hPa 0,0 mm 7,6 km/h (2 Bft) SO 225 0 min 0 W/m 11,7 C 13,3 C 8,3 km/h (2 Bft)
01/11/2011 07:15 13,3 C 90 % 1011,7 hPa 0,0 mm 6,1 km/h (2 Bft) S-SO 202 0 min 0 W/m 11,7 C 13,3 C 10,1 km/h (2 Bft)
01/11/2011 07:20 13,3 C 90 % 1011,7 hPa 0,0 mm 7,2 km/h (2 Bft) SO 225 0 min 0 W/m 11,7 C 13,3 C 14,0 km/h (3 Bft)
01/11/2011 07:25 13,2 C 90 % 1011,7 hPa 0,3 mm 5,4 km/h (2 Bft) S-SO 202 0 min 0 W/m 11,6 C 13,2 C 9,0 km/h (2 Bft)
01/11/2011 07:30 13,2 C 90 % 1011,8 hPa 0,0 mm 9,4 km/h (2 Bft) S-SE 157 0 min 0 W/m 11,6 C 13,2 C 9,4 km/h (2 Bft)
01/11/2011 07:35 13,2 C 90 % 1011,8 hPa 0,0 mm 3,2 km/h (1 Bft) S-SO 202 0 min 0 W/m 11,6 C 13,2 C 7,2 km/h (2 Bft)
01/11/2011 07:40 13,1 C 91 % 1012,0 hPa 0,5 mm 3,2 km/h (1 Bft) N 360 0 min 0 W/m 11,7 C 13,1 C 3,2 km/h (1 Bft)
01/11/2011 07:45 13,1 C 91 % 1012,1 hPa 0,3 mm 6,8 km/h (2 Bft) SO 225 0 min 0 W/m 11,7 C 13,1 C 6,8 km/h (2 Bft)
01/11/2011 07:50 13,1 C 91 % 1012,1 hPa 0,0 mm 8,3 km/h (2 Bft) S-SO 202 0 min 0 W/m 11,7 C 13,1 C 14,0 km/h (3 Bft)
01/11/2011 07:55 13,1 C 92 % 1012,2 hPa 0,3 mm 8,6 km/h (2 Bft) O-SO 247 0 min 0 W/m 11,8 C 13,1 C 10,4 km/h (2 Bft)
01/11/2011 08:00 13,1 C 92 % 1012,3 hPa 0,5 mm 6,5 km/h (2 Bft) S-SO 202 0 min 0 W/m 11,8 C 13,1 C 9,0 km/h (2 Bft)
01/11/2011 08:05 13,1 C 92 % 1012,3 hPa 0,3 mm 5,4 km/h (2 Bft) O-SO 247 0 min 0 W/m 11,8 C 13,1 C 8,3 km/h (2 Bft)
01/11/2011 08:10 13,1 C 92 % 1012,5 hPa 0,3 mm 9,7 km/h (2 Bft) SO 225 0 min 0 W/m 11,8 C 13,1 C 12,6 km/h (3 Bft)
01/11/2011 08:15 13,0 C 92 % 1012,7 hPa 0,0 mm 13,3 km/h (3 Bft) S-SO 202 0 min 0 W/m 11,7 C 13,0 C 15,5 km/h (3 Bft)
01/11/2011 08:20 13,0 C 92 % 1012,6 hPa 0,5 mm 6,1 km/h (2 Bft) S-SO 202 0 min 0 W/m 11,7 C 13,0 C 15,8 km/h (3 Bft)
01/11/2011 08:25 12,9 C 92 % 1012,7 hPa 0,0 mm 6,1 km/h (2 Bft) N 360 0 min 0 W/m 11,6 C 12,9 C 6,1 km/h (2 Bft)
01/11/2011 08:30 12,9 C 92 % 1012,8 hPa 0,5 mm 4,7 km/h (1 Bft) S 180 0 min 0 W/m 11,6 C 12,9 C 10,1 km/h (2 Bft)
01/11/2011 08:35 12,9 C 93 % 1012,8 hPa 0,3 mm 5,0 km/h (1 Bft) SO 225 0 min 0 W/m 11,8 C 12,9 C 10,1 km/h (2 Bft)
01/11/2011 08:40 12,9 C 93 % 1012,9 hPa 0,0 mm 5,4 km/h (2 Bft) SO 225 0 min 0 W/m 11,8 C 12,9 C 7,6 km/h (2 Bft)
01/11/2011 08:45 12,9 C 93 % 1012,9 hPa 0,3 mm 5,8 km/h (2 Bft) S-SO 202 0 min 0 W/m 11,8 C 12,9 C 7,2 km/h (2 Bft)
01/11/2011 08:50 12,8 C 93 % 1013,0 hPa 0,3 mm 3,2 km/h (1 Bft) S-SO 202 0 min 0 W/m 11,7 C 12,8 C 6,8 km/h (2 Bft)
01/11/2011 08:55 12,8 C 93 % 1013,0 hPa 0,0 mm 2,9 km/h (1 Bft) SO 225 0 min 0 W/m 11,7 C 12,8 C 4,3 km/h (1 Bft)
01/11/2011 09:00 12,8 C 93 % 1013,0 hPa 0,3 mm 1,4 km/h (1 Bft) SO 225 0 min 0 W/m 11,7 C 12,8 C 4,3 km/h (1 Bft)
01/11/2011 09:05 12,8 C 93 % 1013,1 hPa 0,0 mm 0,4 km/h (0 Bft) SO 225 0 min 0 W/m 11,7 C 12,8 C 2,9 km/h (1 Bft)
01/11/2011 09:10 12,8 C 93 % 1013,3 hPa 0,0 mm 4,7 km/h (1 Bft) S-SO 202 0 min 0 W/m 11,7 C 12,8 C 7,6 km/h (2 Bft)
01/11/2011 09:15 12,8 C 93 % 1013,4 hPa 0,0 mm 5,4 km/h (2 Bft) S-SO 202 0 min 0 W/m 11,7 C 12,8 C 9,7 km/h (2 Bft)
01/11/2011 09:20 12,8 C 93 % 1013,4 hPa 0,3 mm 4,3 km/h (1 Bft) S-SO 202 0 min 0 W/m 11,7 C 12,8 C 7,2 km/h (2 Bft)
01/11/2011 09:25 12,8 C 94 % 1013,4 hPa 0,0 mm 3,6 km/h (1 Bft) SO 225 0 min 0 W/m 11,9 C 12,8 C 8,3 km/h (2 Bft)
01/11/2011 09:30 12,8 C 94 % 1013,2 hPa 0,0 mm 0,7 km/h (0 Bft) S-SO 202 0 min 0 W/m 11,9 C 12,8 C 4,3 km/h (1 Bft)
01/11/2011 09:35 12,8 C 94 % 1013,5 hPa 0,0 mm 1,1 km/h (1 Bft) S-SO 202 0 min 0 W/m 11,9 C 12,8 C 4,3 km/h (1 Bft)
01/11/2011 09:40 12,8 C 94 % 1013,4 hPa 0,0 mm 4,7 km/h (1 Bft) S-SO 202 0 min 0 W/m 11,9 C 12,8 C 7,6 km/h (2 Bft)
01/11/2011 09:45 12,8 C 94 % 1013,5 hPa 0,0 mm 0,4 km/h (0 Bft) S-SO 202 0 min 0 W/m 11,9 C 12,8 C 3,2 km/h (1 Bft)
01/11/2011 09:50 12,8 C 94 % 1013,5 hPa 0,0 mm 4,3 km/h (1 Bft) S 180 0 min 0 W/m 11,9 C 12,8 C 7,9 km/h (2 Bft)
01/11/2011 09:55 12,8 C 94 % 1013,6 hPa 0,0 mm 4,7 km/h (1 Bft) S-SO 202 0 min 0 W/m 11,9 C 12,8 C 4,7 km/h (1 Bft)
01/11/2011 10:00 12,8 C 94 % 1013,6 hPa 0,0 mm 1,4 km/h (1 Bft) S-SO 202 0 min 0 W/m 11,9 C 12,8 C 4,3 km/h (1 Bft)
01/11/2011 10:05 12,8 C 94 % 1013,4 hPa 0,0 mm 0,0 km/h (0 Bft) SO 225 0 min 0 W/m 11,9 C 12,8 C 0,0 km/h (0 Bft)
01/11/2011 10:10 12,8 C 94 % 1013,5 hPa 0,0 mm 1,4 km/h (1 Bft) SO 225 0 min 0 W/m 11,9 C 12,8 C 4,0 km/h (1 Bft)
01/11/2011 10:15 12,8 C 94 % 1013,7 hPa 0,0 mm 2,2 km/h (1 Bft) S-SO 202 0 min 0 W/m 11,9 C 12,8 C 4,0 km/h (1 Bft)
01/11/2011 10:20 12,8 C 94 % 1013,7 hPa 0,0 mm 3,6 km/h (1 Bft) S-SO 202 0 min 0 W/m 11,9 C 12,8 C 6,8 km/h (2 Bft)
01/11/2011 10:25 12,8 C 94 % 1013,6 hPa 0,0 mm 1,1 km/h (1 Bft) S-SO 202 0 min 0 W/m 11,9 C 12,8 C 1,1 km/h (1 Bft)
01/11/2011 10:30 12,8 C 94 % 1013,6 hPa 0,0 mm 5,4 km/h (2 Bft) SO 225 0 min 0 W/m 11,9 C 12,8 C 10,1 km/h (2 Bft)
01/11/2011 10:35 12,9 C 94 % 1013,7 hPa 0,0 mm 6,5 km/h (2 Bft) S-SO 202 0 min 0 W/m 12,0 C 12,9 C 6,5 km/h (2 Bft)
01/11/2011 10:40 12,9 C 94 % 1013,7 hPa 0,0 mm 5,8 km/h (2 Bft) S-SO 202 0 min 0 W/m 12,0 C 12,9 C 11,2 km/h (2 Bft)
01/11/2011 10:45 12,9 C 94 % 1013,8 hPa 0,0 mm 2,2 km/h (1 Bft) SO 225 0 min 0 W/m 12,0 C 12,9 C 3,6 km/h (1 Bft)
01/11/2011 10:50 12,9 C 94 % 1013,8 hPa 0,0 mm 3,6 km/h (1 Bft) S-SO 202 0 min 0 W/m 12,0 C 12,9 C 4,3 km/h (1 Bft)
01/11/2011 10:55 12,9 C 94 % 1013,8 hPa 0,0 mm 6,5 km/h (2 Bft) SO 225 0 min 0 W/m 12,0 C 12,9 C 8,6 km/h (2 Bft)
01/11/2011 11:00 12,9 C 94 % 1013,9 hPa 0,0 mm 2,5 km/h (1 Bft) S-SO 202 0 min 0 W/m 12,0 C 12,9 C 2,9 km/h (1 Bft)
01/11/2011 11:05 12,9 C 94 % 1013,8 hPa 0,0 mm 4,0 km/h (1 Bft) S 180 0 min 0 W/m 12,0 C 12,9 C 4,3 km/h (1 Bft)
01/11/2011 11:10 12,9 C 93 % 1013,9 hPa 0,0 mm 3,2 km/h (1 Bft) S-SO 202 0 min 0 W/m 11,8 C 12,9 C 7,9 km/h (2 Bft)
01/11/2011 11:15 12,9 C 93 % 1013,9 hPa 0,0 mm 7,2 km/h (2 Bft) S-SO 202 0 min 0 W/m 11,8 C 12,9 C 7,2 km/h (2 Bft)
01/11/2011 11:20 12,9 C 93 % 1013,9 hPa 0,0 mm 1,8 km/h (1 Bft) S 180 0 min 0 W/m 11,8 C 12,9 C 7,6 km/h (2 Bft)
01/11/2011 11:25 12,8 C 93 % 1013,9 hPa 0,0 mm 3,2 km/h (1 Bft) SO 225 0 min 0 W/m 11,7 C 12,8 C 8,3 km/h (2 Bft)
01/11/2011 11:30 12,9 C 93 % 1013,9 hPa 0,0 mm 3,6 km/h (1 Bft) S-SO 202 0 min 0 W/m 11,8 C 12,9 C 6,1 km/h (2 Bft)
01/11/2011 11:35 12,9 C 93 % 1013,9 hPa 0,0 mm 5,0 km/h (1 Bft) S-SO 202 0 min 0 W/m 11,8 C 12,9 C 10,8 km/h (2 Bft)
01/11/2011 11:40 13,1 C 93 % 1013,8 hPa 0,0 mm 1,4 km/h (1 Bft) SO 225 0 min 0 W/m 12,0 C 13,1 C 4,3 km/h (1 Bft)
01/11/2011 11:45 13,1 C 93 % 1013,9 hPa 0,0 mm 6,1 km/h (2 Bft) S-SO 202 0 min 0 W/m 12,0 C 13,1 C 9,7 km/h (2 Bft)
01/11/2011 11:50 13,2 C 92 % 1013,9 hPa 0,0 mm 4,7 km/h (1 Bft) SO 225 0 min 0 W/m 11,9 C 13,2 C 11,5 km/h (2 Bft)
01/11/2011 11:55 13,3 C 92 % 1013,9 hPa 0,0 mm 7,2 km/h (2 Bft) SO 225 0 min 0 W/m 12,0 C 13,3 C 11,5 km/h (2 Bft)
01/11/2011 12:00 13,5 C 92 % 1013,9 hPa 0,0 mm 2,2 km/h (1 Bft) S-SE 157 0 min 0 W/m 12,2 C 13,5 C 4,3 km/h (1 Bft)
01/11/2011 12:05 13,8 C 93 % 1014,0 hPa 0,0 mm 4,7 km/h (1 Bft) S-SO 202 0 min 0 W/m 12,7 C 13,8 C 7,6 km/h (2 Bft)
01/11/2011 12:10 13,9 C 91 % 1014,0 hPa 0,0 mm 7,2 km/h (2 Bft) S-SO 202 0 min 0 W/m 12,5 C 13,9 C 7,2 km/h (2 Bft)
01/11/2011 12:15 14,1 C 91 % 1013,9 hPa 0,0 mm 6,5 km/h (2 Bft) O 270 0 min 0 W/m 12,7 C 14,1 C 10,4 km/h (2 Bft)
01/11/2011 12:20 14,2 C 90 % 1014,0 hPa 0,0 mm 7,6 km/h (2 Bft) S-SO 202 0 min 0 W/m 12,6 C 14,2 C 10,8 km/h (2 Bft)
01/11/2011 12:25 14,3 C 89 % 1014,1 hPa 0,0 mm 6,5 km/h (2 Bft) O-SO 247 0 min 0 W/m 12,5 C 14,3 C 11,9 km/h (2 Bft)
01/11/2011 12:30 14,4 C 88 % 1014,1 hPa 0,0 mm 13,3 km/h (3 Bft) S-SO 202 0 min 0 W/m 12,4 C 14,4 C 15,1 km/h (3 Bft)
01/11/2011 12:35 14,4 C 87 % 1014,0 hPa 0,0 mm 5,8 km/h (2 Bft) SO 225 0 min 0 W/m 12,3 C 14,4 C 7,9 km/h (2 Bft)
01/11/2011 12:40 14,3 C 88 % 1014,1 hPa 0,0 mm 1,8 km/h (1 Bft) O-SO 247 0 min 0 W/m 12,3 C 14,3 C 1,8 km/h (1 Bft)
01/11/2011 12:45 14,3 C 87 % 1014,1 hPa 0,0 mm 8,3 km/h (2 Bft) O-SO 247 0 min 0 W/m 12,2 C 14,3 C 8,3 km/h (2 Bft)
01/11/2011 12:50 14,2 C 88 % 1014,0 hPa 0,0 mm 5,0 km/h (1 Bft) S-SO 202 0 min 0 W/m 12,2 C 14,2 C 8,3 km/h (2 Bft)
01/11/2011 12:55 14,1 C 88 % 1014,0 hPa 0,0 mm 6,5 km/h (2 Bft) SO 225 0 min 0 W/m 12,1 C 14,1 C 11,5 km/h (2 Bft)
01/11/2011 13:00 14,1 C 88 % 1013,9 hPa 0,0 mm 4,7 km/h (1 Bft) SO 225 0 min 0 W/m 12,1 C 14,1 C 8,3 km/h (2 Bft)
01/11/2011 13:05 14,1 C 88 % 1014,0 hPa 0,0 mm 4,7 km/h (1 Bft) S-SO 202 0 min 0 W/m 12,1 C 14,1 C 7,2 km/h (2 Bft)
01/11/2011 13:10 14,1 C 88 % 1014,0 hPa 0,0 mm 8,3 km/h (2 Bft) SO 225 0 min 0 W/m 12,1 C 14,1 C 9,0 km/h (2 Bft)
01/11/2011 13:15 14,1 C 88 % 1013,9 hPa 0,0 mm 5,8 km/h (2 Bft) S-SO 202 0 min 0 W/m 12,1 C 14,1 C 9,7 km/h (2 Bft)
01/11/2011 13:20 14,1 C 88 % 1014,0 hPa 0,0 mm 3,2 km/h (1 Bft) SO 225 0 min 0 W/m 12,1 C 14,1 C 6,1 km/h (2 Bft)
01/11/2011 13:25 14,2 C 88 % 1013,8 hPa 0,0 mm 5,8 km/h (2 Bft) S-SO 202 0 min 0 W/m 12,2 C 14,2 C 8,6 km/h (2 Bft)
01/11/2011 13:30 14,3 C 88 % 1013,8 hPa 0,0 mm 6,8 km/h (2 Bft) S-SO 202 0 min 0 W/m 12,3 C 14,3 C 12,6 km/h (3 Bft)
01/11/2011 13:35 14,3 C 88 % 1013,8 hPa 0,0 mm 3,2 km/h (1 Bft) SO 225 0 min 0 W/m 12,3 C 14,3 C 7,6 km/h (2 Bft)
01/11/2011 13:40 14,4 C 86 % 1013,9 hPa 0,0 mm 5,0 km/h (1 Bft) O-SO 247 0 min 0 W/m 12,1 C 14,4 C 7,2 km/h (2 Bft)
01/11/2011 13:45 14,6 C 87 % 1013,9 hPa 0,0 mm 2,5 km/h (1 Bft) S-SO 202 0 min 0 W/m 12,5 C 14,6 C 3,2 km/h (1 Bft)
01/11/2011 13:50 14,9 C 87 % 1014,0 hPa 0,0 mm 5,8 km/h (2 Bft) O-SO 247 0 min 0 W/m 12,8 C 14,9 C 10,1 km/h (2 Bft)
01/11/2011 13:55 15,1 C 86 % 1014,2 hPa 0,0 mm 7,2 km/h (2 Bft) S-SO 202 0 min 0 W/m 12,8 C 15,1 C 9,7 km/h (2 Bft)
01/11/2011 14:00 15,3 C 85 % 1014,2 hPa 0,0 mm 6,5 km/h (2 Bft) S-SO 202 0 min 0 W/m 12,8 C 15,3 C 7,2 km/h (2 Bft)
01/11/2011 14:05 15,4 C 84 % 1014,2 hPa 0,0 mm 7,6 km/h (2 Bft) SO 225 0 min 0 W/m 12,7 C 15,4 C 7,6 km/h (2 Bft)
01/11/2011 14:10 15,4 C 83 % 1014,2 hPa 0,0 mm 4,7 km/h (1 Bft) SO 225 0 min 0 W/m 12,5 C 15,4 C 4,7 km/h (1 Bft)
01/11/2011 14:15 15,4 C 83 % 1014,2 hPa 0,0 mm 3,2 km/h (1 Bft) O-SO 247 0 min 0 W/m 12,5 C 15,4 C 3,2 km/h (1 Bft)
01/11/2011 14:20 15,6 C 84 % 1014,2 hPa 0,0 mm 10,4 km/h (2 Bft) O-SO 247 0 min 0 W/m 12,9 C 15,6 C 10,4 km/h (2 Bft)
01/11/2011 14:25 15,8 C 82 % 1014,1 hPa 0,0 mm 6,8 km/h (2 Bft) S-SO 202 0 min 0 W/m 12,7 C 15,8 C 12,2 km/h (2 Bft)
01/11/2011 14:30 16,1 C 82 % 1014,1 hPa 0,0 mm 5,8 km/h (2 Bft) S-SO 202 0 min 0 W/m 13,0 C 16,1 C 10,8 km/h (2 Bft)
01/11/2011 14:35 16,2 C 82 % 1014,1 hPa 0,0 mm 2,9 km/h (1 Bft) SO 225 0 min 0 W/m 13,1 C 16,2 C 7,2 km/h (2 Bft)
01/11/2011 14:40 16,3 C 80 % 1014,1 hPa 0,0 mm 4,0 km/h (1 Bft) SO 225 0 min 0 W/m 12,8 C 16,3 C 4,0 km/h (1 Bft)
01/11/2011 14:45 16,3 C 79 % 1014,0 hPa 0,0 mm 8,3 km/h (2 Bft) S 180 0 min 0 W/m 12,6 C 16,3 C 9,4 km/h (2 Bft)
01/11/2011 14:50 16,3 C 79 % 1014,0 hPa 0,0 mm 2,9 km/h (1 Bft) SO 225 0 min 0 W/m 12,6 C 16,3 C 4,3 km/h (1 Bft)
01/11/2011 14:55 16,3 C 79 % 1014,1 hPa 0,0 mm 3,6 km/h (1 Bft) O-SO 247 0 min 0 W/m 12,6 C 16,3 C 3,6 km/h (1 Bft)
01/11/2011 15:00 16,4 C 79 % 1014,0 hPa 0,0 mm 4,0 km/h (1 Bft) S 180 0 min 0 W/m 12,7 C 16,4 C 8,3 km/h (2 Bft)
01/11/2011 15:05 16,4 C 79 % 1014,1 hPa 0,0 mm 1,1 km/h (1 Bft) O-SO 247 0 min 0 W/m 12,7 C 16,4 C 4,0 km/h (1 Bft)
01/11/2011 15:10 16,4 C 78 % 1014,2 hPa 0,0 mm 3,6 km/h (1 Bft) O-SO 247 0 min 0 W/m 12,6 C 16,4 C 11,5 km/h (2 Bft)
01/11/2011 15:15 16,4 C 77 % 1014,2 hPa 0,0 mm 4,0 km/h (1 Bft) O-NO 292 0 min 0 W/m 12,4 C 16,4 C 7,9 km/h (2 Bft)
01/11/2011 15:20 16,2 C 78 % 1014,1 hPa 0,0 mm 0,4 km/h (0 Bft) O-NO 292 0 min 0 W/m 12,4 C 16,2 C 3,6 km/h (1 Bft)
01/11/2011 15:25 16,2 C 79 % 1014,0 hPa 0,0 mm 0,7 km/h (0 Bft) S-SO 202 0 min 0 W/m 12,6 C 16,2 C 6,1 km/h (2 Bft)
01/11/2011 15:30 16,2 C 79 % 1013,9 hPa 0,0 mm 0,4 km/h (0 Bft) O-SO 247 0 min 0 W/m 12,6 C 16,2 C 0,4 km/h (0 Bft)
01/11/2011 15:35 16,3 C 77 % 1014,0 hPa 0,0 mm 6,5 km/h (2 Bft) O 270 0 min 0 W/m 12,3 C 16,3 C 7,6 km/h (2 Bft)
01/11/2011 15:40 16,3 C 75 % 1014,0 hPa 0,0 mm 5,8 km/h (2 Bft) O-SO 247 0 min 0 W/m 11,9 C 16,3 C 10,4 km/h (2 Bft)
01/11/2011 15:45 16,3 C 74 % 1014,1 hPa 0,0 mm 1,4 km/h (1 Bft) O 270 0 min 0 W/m 11,7 C 16,3 C 4,0 km/h (1 Bft)
01/11/2011 15:50 16,4 C 71 % 1014,1 hPa 0,0 mm 5,8 km/h (2 Bft) O 270 0 min 0 W/m 11,1 C 16,4 C 11,5 km/h (2 Bft)
01/11/2011 15:55 16,3 C 70 % 1014,2 hPa 0,0 mm 0,4 km/h (0 Bft) O-SO 247 0 min 0 W/m 10,8 C 16,3 C 4,0 km/h (1 Bft)
01/11/2011 16:00 16,3 C 71 % 1014,1 hPa 0,0 mm 3,6 km/h (1 Bft) SO 225 0 min 0 W/m 11,0 C 16,3 C 3,6 km/h (1 Bft)
01/11/2011 16:05 16,3 C 71 % 1014,2 hPa 0,0 mm 1,1 km/h (1 Bft) O 270 0 min 0 W/m 11,0 C 16,3 C 4,0 km/h (1 Bft)
01/11/2011 16:10 16,3 C 71 % 1014,2 hPa 0,0 mm 0,7 km/h (0 Bft) O-SO 247 0 min 0 W/m 11,0 C 16,3 C 4,0 km/h (1 Bft)
01/11/2011 16:15 16,2 C 72 % 1014,1 hPa 0,0 mm 0,0 km/h (0 Bft) O-SO 247 0 min 0 W/m 11,1 C 16,2 C 0,0 km/h (0 Bft)
01/11/2011 16:20 16,2 C 72 % 1014,2 hPa 0,0 mm 2,5 km/h (1 Bft) O-SO 247 0 min 0 W/m 11,1 C 16,2 C 2,9 km/h (1 Bft)
01/11/2011 16:25 16,2 C 72 % 1014,2 hPa 0,0 mm 1,4 km/h (1 Bft) O-SO 247 0 min 0 W/m 11,1 C 16,2 C 4,0 km/h (1 Bft)
01/11/2011 16:30 16,1 C 72 % 1014,1 hPa 0,0 mm 5,0 km/h (1 Bft) SO 225 0 min 0 W/m 11,0 C 16,1 C 9,4 km/h (2 Bft)
01/11/2011 16:35 16,0 C 69 % 1014,1 hPa 0,0 mm 1,4 km/h (1 Bft) SO 225 0 min 0 W/m 10,3 C 16,0 C 1,4 km/h (1 Bft)
01/11/2011 16:40 15,9 C 70 % 1014,1 hPa 0,0 mm 1,4 km/h (1 Bft) O-SO 247 0 min 0 W/m 10,4 C 15,9 C 7,6 km/h (2 Bft)
01/11/2011 16:45 15,8 C 70 % 1014,1 hPa 0,0 mm 1,8 km/h (1 Bft) O-SO 247 0 min 0 W/m 10,3 C 15,8 C 10,4 km/h (2 Bft)
01/11/2011 16:50 15,8 C 70 % 1014,0 hPa 0,0 mm 0,4 km/h (0 Bft) O 270 0 min 0 W/m 10,3 C 15,8 C 3,2 km/h (1 Bft)
01/11/2011 16:55 15,6 C 70 % 1014,0 hPa 0,0 mm 0,0 km/h (0 Bft) O-SO 247 0 min 0 W/m 10,1 C 15,6 C 3,6 km/h (1 Bft)
01/11/2011 17:00 15,4 C 71 % 1014,2 hPa 0,0 mm 0,0 km/h (0 Bft) SO 225 0 min 0 W/m 10,2 C 15,4 C 0,0 km/h (0 Bft)
01/11/2011 17:05 15,3 C 72 % 1014,1 hPa 0,0 mm 0,0 km/h (0 Bft) SO 225 0 min 0 W/m 10,3 C 15,3 C 0,0 km/h (0 Bft)
01/11/2011 17:10 15,1 C 72 % 1014,1 hPa 0,0 mm 0,0 km/h (0 Bft) SO 225 0 min 0 W/m 10,1 C 15,1 C 0,0 km/h (0 Bft)
01/11/2011 17:15 14,8 C 73 % 1014,1 hPa 0,0 mm 0,0 km/h (0 Bft) SO 225 0 min 0 W/m 10,0 C 14,8 C 0,0 km/h (0 Bft)
01/11/2011 17:20 14,6 C 73 % 1014,2 hPa 0,0 mm 0,0 km/h (0 Bft) SO 225 0 min 0 W/m 9,8 C 14,6 C 0,0 km/h (0 Bft)
01/11/2011 17:25 14,3 C 73 % 1014,3 hPa 0,0 mm 0,0 km/h (0 Bft) SO 225 0 min 0 W/m 9,5 C 14,3 C 0,0 km/h (0 Bft)
01/11/2011 17:30 14,1 C 74 % 1014,2 hPa 0,0 mm 0,0 km/h (0 Bft) SO 225 0 min 0 W/m 9,5 C 14,1 C 0,0 km/h (0 Bft)
01/11/2011 17:35 13,8 C 75 % 1014,3 hPa 0,0 mm 0,0 km/h (0 Bft) SO 225 0 min 0 W/m 9,4 C 13,8 C 0,0 km/h (0 Bft)
01/11/2011 17:40 13,5 C 75 % 1014,3 hPa 0,0 mm 0,0 km/h (0 Bft) SO 225 0 min 0 W/m 9,2 C 13,5 C 0,0 km/h (0 Bft)
01/11/2011 17:45 13,2 C 76 % 1014,3 hPa 0,0 mm 0,0 km/h (0 Bft) SO 225 0 min 0 W/m 9,1 C 13,2 C 0,0 km/h (0 Bft)
01/11/2011 17:50 12,9 C 76 % 1014,4 hPa 0,0 mm 0,0 km/h (0 Bft) SO 225 0 min 0 W/m 8,8 C 12,9 C 0,0 km/h (0 Bft)
01/11/2011 17:55 12,6 C 77 % 1014,4 hPa 0,0 mm 0,0 km/h (0 Bft) SO 225 0 min 0 W/m 8,7 C 12,6 C 0,0 km/h (0 Bft)
01/11/2011 18:00 12,3 C 78 % 1014,5 hPa 0,0 mm 0,0 km/h (0 Bft) SO 225 0 min 0 W/m 8,6 C 12,3 C 0,0 km/h (0 Bft)
01/11/2011 18:05 12,1 C 79 % 1014,5 hPa 0,0 mm 0,0 km/h (0 Bft) SO 225 0 min 0 W/m 8,6 C 12,1 C 0,0 km/h (0 Bft)
01/11/2011 18:10 11,8 C 80 % 1014,6 hPa 0,0 mm 0,0 km/h (0 Bft) SO 225 0 min 0 W/m 8,5 C 11,8 C 0,0 km/h (0 Bft)
01/11/2011 18:15 11,7 C 81 % 1014,6 hPa 0,0 mm 0,0 km/h (0 Bft) SO 225 0 min 0 W/m 8,5 C 11,7 C 0,0 km/h (0 Bft)
01/11/2011 18:20 11,4 C 80 % 1014,6 hPa 0,0 mm 0,0 km/h (0 Bft) SO 225 0 min 0 W/m 8,1 C 11,4 C 0,0 km/h (0 Bft)
01/11/2011 18:25 11,2 C 81 % 1014,7 hPa 0,0 mm 0,0 km/h (0 Bft) SO 225 0 min 0 W/m 8,1 C 11,2 C 0,0 km/h (0 Bft)
01/11/2011 18:30 11,0 C 82 % 1014,7 hPa 0,0 mm 0,0 km/h (0 Bft) SO 225 0 min 0 W/m 8,0 C 11,0 C 0,0 km/h (0 Bft)
01/11/2011 18:35 10,8 C 83 % 1014,8 hPa 0,0 mm 0,0 km/h (0 Bft) S-SE 157 0 min 0 W/m 8,0 C 10,8 C 0,0 km/h (0 Bft)
01/11/2011 18:40 10,6 C 83 % 1014,8 hPa 0,0 mm 0,0 km/h (0 Bft) S-SE 157 0 min 0 W/m 7,8 C 10,6 C 0,0 km/h (0 Bft)
01/11/2011 18:45 10,5 C 83 % 1014,9 hPa 0,0 mm 0,0 km/h (0 Bft) S-SE 157 0 min 0 W/m 7,7 C 10,5 C 0,0 km/h (0 Bft)
01/11/2011 18:50 10,4 C 83 % 1015,0 hPa 0,0 mm 0,0 km/h (0 Bft) S-SE 157 0 min 0 W/m 7,6 C 10,4 C 0,0 km/h (0 Bft)
01/11/2011 18:55 10,3 C 84 % 1014,9 hPa 0,0 mm 0,0 km/h (0 Bft) S-SE 157 0 min 0 W/m 7,7 C 10,3 C 0,0 km/h (0 Bft)
01/11/2011 19:00 10,1 C 84 % 1015,0 hPa 0,0 mm 0,0 km/h (0 Bft) S-SE 157 0 min 0 W/m 7,5 C 10,1 C 0,0 km/h (0 Bft)
01/11/2011 19:05 10,1 C 84 % 1015,0 hPa 0,0 mm 0,0 km/h (0 Bft) S-SE 157 0 min 0 W/m 7,5 C 10,1 C 0,0 km/h (0 Bft)
01/11/2011 19:10 10,0 C 85 % 1015,0 hPa 0,0 mm 0,0 km/h (0 Bft) S-SE 157 0 min 0 W/m 7,6 C 10,0 C 0,0 km/h (0 Bft)
01/11/2011 19:15 9,9 C 86 % 1015,0 hPa 0,0 mm 0,0 km/h (0 Bft) S-SE 157 0 min 0 W/m 7,7 C 9,9 C 0,0 km/h (0 Bft)
01/11/2011 19:20 9,9 C 86 % 1015,0 hPa 0,0 mm 0,0 km/h (0 Bft) S-SE 157 0 min 0 W/m 7,7 C 9,9 C 0,0 km/h (0 Bft)
01/11/2011 19:25 9,8 C 86 % 1015,0 hPa 0,0 mm 0,0 km/h (0 Bft) SE 135 0 min 0 W/m 7,6 C 9,8 C 0,0 km/h (0 Bft)
01/11/2011 19:30 9,8 C 86 % 1015,0 hPa 0,0 mm 0,0 km/h (0 Bft) SE 135 0 min 0 W/m 7,6 C 9,8 C 0,0 km/h (0 Bft)
01/11/2011 19:35 9,8 C 86 % 1015,1 hPa 0,0 mm 0,4 km/h (0 Bft) E-SE 112 0 min 0 W/m 7,6 C 9,8 C 3,6 km/h (1 Bft)
01/11/2011 19:40 9,8 C 86 % 1015,1 hPa 0,0 mm 0,4 km/h (0 Bft) E-SE 112 0 min 0 W/m 7,6 C 9,8 C 0,4 km/h (0 Bft)
01/11/2011 19:45 9,8 C 87 % 1015,0 hPa 0,0 mm 0,4 km/h (0 Bft) E-SE 112 0 min 0 W/m 7,7 C 9,8 C 2,9 km/h (1 Bft)
01/11/2011 19:50 9,8 C 87 % 1015,0 hPa 0,0 mm 0,0 km/h (0 Bft) E-SE 112 0 min 0 W/m 7,7 C 9,8 C 0,0 km/h (0 Bft)
01/11/2011 19:55 9,6 C 87 % 1014,9 hPa 0,0 mm 0,0 km/h (0 Bft) E-SE 112 0 min 0 W/m 7,5 C 9,6 C 0,0 km/h (0 Bft)
01/11/2011 20:00 9,5 C 87 % 1014,8 hPa 0,0 mm 0,0 km/h (0 Bft) E-SE 112 0 min 0 W/m 7,4 C 9,5 C 0,0 km/h (0 Bft)
01/11/2011 20:05 9,4 C 87 % 1014,8 hPa 0,0 mm 1,4 km/h (1 Bft) E-SE 112 0 min 0 W/m 7,3 C 9,4 C 3,2 km/h (1 Bft)
01/11/2011 20:10 9,4 C 87 % 1014,9 hPa 0,0 mm 2,9 km/h (1 Bft) E-SE 112 0 min 0 W/m 7,3 C 9,4 C 4,0 km/h (1 Bft)
01/11/2011 20:15 9,4 C 88 % 1014,9 hPa 0,0 mm 0,4 km/h (0 Bft) E-SE 112 0 min 0 W/m 7,5 C 9,4 C 3,6 km/h (1 Bft)
01/11/2011 20:20 9,3 C 89 % 1014,8 hPa 0,0 mm 2,5 km/h (1 Bft) E-SE 112 0 min 0 W/m 7,6 C 9,3 C 4,0 km/h (1 Bft)
01/11/2011 20:25 9,3 C 89 % 1014,9 hPa 0,0 mm 0,7 km/h (0 Bft) E-SE 112 0 min 0 W/m 7,6 C 9,3 C 3,2 km/h (1 Bft)
01/11/2011 20:30 9,3 C 89 % 1014,9 hPa 0,0 mm 2,5 km/h (1 Bft) E-SE 112 0 min 0 W/m 7,6 C 9,3 C 6,1 km/h (2 Bft)
01/11/2011 20:35 9,3 C 89 % 1014,8 hPa 0,0 mm 0,0 km/h (0 Bft) E-SE 112 0 min 0 W/m 7,6 C 9,3 C 3,2 km/h (1 Bft)
01/11/2011 20:40 9,3 C 89 % 1014,8 hPa 0,0 mm 0,0 km/h (0 Bft) E-SE 112 0 min 0 W/m 7,6 C 9,3 C 3,2 km/h (1 Bft)
01/11/2011 20:45 9,3 C 90 % 1014,8 hPa 0,0 mm 0,4 km/h (0 Bft) SE 135 0 min 0 W/m 7,7 C 9,3 C 3,2 km/h (1 Bft)
01/11/2011 20:50 9,3 C 90 % 1014,8 hPa 0,0 mm 0,0 km/h (0 Bft) SE 135 0 min 0 W/m 7,7 C 9,3 C 0,0 km/h (0 Bft)
01/11/2011 20:55 9,3 C 90 % 1014,7 hPa 0,0 mm 4,0 km/h (1 Bft) E-SE 112 0 min 0 W/m 7,7 C 9,3 C 4,3 km/h (1 Bft)
01/11/2011 21:00 9,2 C 90 % 1014,7 hPa 0,0 mm 0,7 km/h (0 Bft) E-SE 112 0 min 0 W/m 7,6 C 9,2 C 4,3 km/h (1 Bft)
01/11/2011 21:05 9,1 C 90 % 1014,7 hPa 0,0 mm 2,2 km/h (1 Bft) E-SE 112 0 min 0 W/m 7,5 C 9,1 C 3,6 km/h (1 Bft)
01/11/2011 21:10 9,1 C 90 % 1014,7 hPa 0,0 mm 2,9 km/h (1 Bft) E-SE 112 0 min 0 W/m 7,5 C 9,1 C 4,3 km/h (1 Bft)
01/11/2011 21:15 9,1 C 91 % 1014,6 hPa 0,0 mm 1,8 km/h (1 Bft) E 90 0 min 0 W/m 7,7 C 9,1 C 6,1 km/h (2 Bft)
01/11/2011 21:20 8,9 C 91 % 1014,6 hPa 0,0 mm 0,4 km/h (0 Bft) E-SE 112 0 min 0 W/m 7,5 C 8,9 C 3,2 km/h (1 Bft)
01/11/2011 21:25 8,8 C 91 % 1014,5 hPa 0,0 mm 0,0 km/h (0 Bft) E 90 0 min 0 W/m 7,4 C 8,8 C 0,0 km/h (0 Bft)
01/11/2011 21:30 8,8 C 91 % 1014,5 hPa 0,0 mm 1,1 km/h (1 Bft) E-SE 112 0 min 0 W/m 7,4 C 8,8 C 3,2 km/h (1 Bft)
01/11/2011 21:35 8,6 C 91 % 1014,6 hPa 0,0 mm 0,0 km/h (0 Bft) E-SE 112 0 min 0 W/m 7,2 C 8,6 C 0,0 km/h (0 Bft)
01/11/2011 21:40 8,6 C 91 % 1014,5 hPa 0,0 mm 2,5 km/h (1 Bft) E-SE 112 0 min 0 W/m 7,2 C 8,6 C 2,5 km/h (1 Bft)
01/11/2011 21:45 8,5 C 91 % 1014,6 hPa 0,0 mm 0,4 km/h (0 Bft) SE 135 0 min 0 W/m 7,1 C 8,5 C 4,0 km/h (1 Bft)
01/11/2011 21:50 8,5 C 91 % 1014,5 hPa 0,0 mm 1,4 km/h (1 Bft) E-SE 112 0 min 0 W/m 7,1 C 8,5 C 4,0 km/h (1 Bft)
01/11/2011 21:55 8,4 C 91 % 1014,5 hPa 0,0 mm 0,0 km/h (0 Bft) E 90 0 min 0 W/m 7,0 C 8,4 C 0,0 km/h (0 Bft)
01/11/2011 22:00 8,4 C 91 % 1014,4 hPa 0,0 mm 1,8 km/h (1 Bft) E-SE 112 0 min 0 W/m 7,0 C 8,4 C 4,0 km/h (1 Bft)
01/11/2011 22:05 8,4 C 91 % 1014,4 hPa 0,0 mm 0,4 km/h (0 Bft) E-SE 112 0 min 0 W/m 7,0 C 8,4 C 4,0 km/h (1 Bft)
01/11/2011 22:10 8,3 C 91 % 1014,5 hPa 0,0 mm 1,4 km/h (1 Bft) E-SE 112 0 min 0 W/m 6,9 C 8,3 C 4,0 km/h (1 Bft)
01/11/2011 22:15 8,3 C 92 % 1014,5 hPa 0,0 mm 0,0 km/h (0 Bft) E-SE 112 0 min 0 W/m 7,1 C 8,3 C 0,0 km/h (0 Bft)
01/11/2011 22:20 8,3 C 92 % 1014,4 hPa 0,0 mm 0,4 km/h (0 Bft) E-SE 112 0 min 0 W/m 7,1 C 8,3 C 3,6 km/h (1 Bft)
01/11/2011 22:25 8,4 C 92 % 1014,5 hPa 0,0 mm 1,8 km/h (1 Bft) E 90 0 min 0 W/m 7,2 C 8,4 C 4,3 km/h (1 Bft)
01/11/2011 22:30 8,4 C 92 % 1014,3 hPa 0,0 mm 1,1 km/h (1 Bft) E-SE 112 0 min 0 W/m 7,2 C 8,4 C 4,0 km/h (1 Bft)
01/11/2011 22:35 8,3 C 92 % 1014,2 hPa 0,0 mm 1,8 km/h (1 Bft) E-NE 67 0 min 0 W/m 7,1 C 8,3 C 4,0 km/h (1 Bft)
01/11/2011 22:40 8,3 C 92 % 1014,3 hPa 0,0 mm 0,7 km/h (0 Bft) E-SE 112 0 min 0 W/m 7,1 C 8,3 C 3,6 km/h (1 Bft)
01/11/2011 22:45 8,3 C 92 % 1014,2 hPa 0,0 mm 1,4 km/h (1 Bft) E-SE 112 0 min 0 W/m 7,1 C 8,3 C 4,0 km/h (1 Bft)
_ Min-Heure 22:45 16:35 05:50 - 22:15 - - - - 22:10 22:45 22:15
Minimum _ 8,3 C 69 % 1010,6 hPa - 0,0 km/h (0 Bft) - - - - 6,9 C 8,3 C 0,0 km/h (0 Bft)
_ Max-Heure 15:50 11:05 19:40 08:30 06:30 - - 22:45 22:45 14:35 15:50 06:35
Maximum _ 16,4 C 94 % 1015,1 hPa 0,5 mm 14,0 km/h
S-SO (3 Bft)
- - 0 min 0 W/m 13,1 C 16,4 C 22,7 km/h
SO (4 Bft)
Moyenne _ 13,0 C 85 % 1013,2 hPa #5,2 mm 3,9 km/h (1 Bft) S-SO - #0 min. 0 W/m 10,6 C 13,0 C 6,4 km/h (2 Bft)
Saint Bonnet de Bellac- Haute Vienne - France